This is the latest recevied weather packets stored in our database for station/object WP3OF-3. If no packets are shown the sender has not sent any weather packets the latest 10 day(s).
| Time | Temp. | Humidity | Pressure | Rain* | Wind** | Luminosity | Snow |
|---|---|---|---|---|---|---|---|
| 1778188261 | 26.67° C | 78% | 1018.1 hPa | 0 mm | - | - | - |
| 1778187959 | 26.67° C | 77% | 1018.3 hPa | 0 mm | - | - | - |
| 1778187655 | 26.67° C | 77% | 1018 hPa | 0 mm | - | - | - |
| 1778187352 | 26.67° C | 76% | 1018.1 hPa | 0 mm | - | - | - |
| 1778187049 | 27.22° C | 78% | 1018.3 hPa | 0 mm | - | - | - |
| 1778186745 | 27.22° C | 77% | 1017.8 hPa | 0 mm | - | - | - |
| 1778186442 | 27.78° C | 75% | 1017.9 hPa | 0 mm | - | - | - |
| 1778186140 | 27.78° C | 74% | 1017.9 hPa | 0 mm | - | - | - |
| 1778185838 | 27.78° C | 74% | 1017.9 hPa | 0 mm | - | - | - |
| 1778185533 | 27.78° C | 74% | 1017.8 hPa | 0 mm | - | - | - |
| 1778185229 | 27.78° C | 73% | 1018 hPa | 0 mm | - | - | - |
| 1778184925 | 27.78° C | 71% | 1018 hPa | 0 mm | - | - | - |
| 1778184621 | 27.78° C | 71% | 1018.2 hPa | 0 mm | - | - | - |
| 1778184317 | 27.78° C | 71% | 1018.2 hPa | 0 mm | - | - | - |
| 1778184013 | 27.78° C | 70% | 1018.1 hPa | 0 mm | - | - | - |
| 1778183711 | 27.78° C | 73% | 1018.1 hPa | 0 mm | - | - | - |
| 1778183408 | 27.78° C | 74% | 1018.2 hPa | 0 mm | - | - | - |
| 1778183104 | 27.78° C | 74% | 1018.3 hPa | 0 mm | - | - | - |
| 1778182800 | 27.78° C | 74% | 1018.4 hPa | 0 mm | - | - | - |
| 1778182498 | 27.78° C | 73% | 1018.4 hPa | 0 mm | - | - | - |
| 1778182194 | 27.78° C | 72% | 1018.4 hPa | 0 mm | - | - | - |
| 1778181890 | 28.33° C | 71% | 1018.2 hPa | 0 mm | - | - | - |
| 1778181588 | 28.33° C | 72% | 1018.3 hPa | 0 mm | - | - | - |
| 1778181283 | 28.33° C | 70% | 1018.2 hPa | 0 mm | - | - | - |
| 1778180980 | 28.89° C | 70% | 1018.4 hPa | 0 mm | - | - | - |
* Rain latest hour (hover to see other rain measurements)
** Current wind speed in m/s (hover to see current wind gust speed)